Back to catalog

STARLINK-6294

AliveCommunicationsVLEO
NORAD 57225·PAYLOAD·🇺🇸 United States

Launched Jul 7, 2023 from Vandenberg Space Force Base

Loading…

Next Passes (next 24 hours)

TLE

FreshSource: CelesTrak SupGP

Epoch: Sep 14, 2026, 22:21 UTC

1 57225C 23094H   26257.93173611  .00032383  00000+0  11728-2 0  2578
2 57225  43.0037  42.3839 0002007 277.2295  55.1828 15.27565183    15

Track STARLINK-6294 in real time with AllMySat

Download on the App Store